Regional Weather Roundup
Issued by NWS

Home | Current Version | Previous Version | Text Only | Print | Product List | Glossary Off
Versions: 1 2 3 4 5 6 7 8 9 10 11 12 13 14 15 16 17 18 19 20 21 22 23 24 25 26 27 28 29 30 31 32 33 34 35 36 37 38 39 40 41 42 43 44 45 46 47 48 49 50

000
ASUS43 KIND 240309
RWRIN

WEATHER ROUNDUP FOR INDIANA
NATIONAL WEATHER SERVICE INDIANAPOLIS IN
1100 PM EDT FRI JUN 23 2017

NOTE: "FAIR" INDICATES FEW OR NO CLOUDS BELOW 12,000 FEET WITH NO
SIGNIFICANT WEATHER AND/OR OBSTRUCTIONS TO VISIBILITY.

* - STATION DOES NOT REPORT WEATHER SUCH AS PRECIPITATION OR FOG.

+ - STATION NOT QUALITY CONTROLLED BY THE NATIONAL WEATHER SERVICE.
    USE DATA WITH CAUTION...ESPECIALLY DEWPOINT AND RELATIVE
    HUMIDITY OBSERVATIONS.

INZ001>003-010>013-019-020-240400-
NORTHWEST INDIANA

CITY           SKY/WX    TMP DP  RH WIND       PRES   REMARKS
GARY /AIRPORT/ PTCLDY    73  52  46 NW14G29   29.79R
KNOX *+        CLOUDY    64  52  63 SW3       29.78R
LA PORTE +     CLOUDY    71  55  55 W6        29.79R
MICHIGAN CITY+ CLOUDY    70  52  52 NW3       29.79R
MONTICELLO +   PTCLDY    67  60  78 SW6       29.80R
RENSSELAER +   PTCLDY    72  52  49 W10G16    29.81R
VALPARAISO     PTCLDY    73  55  53 NW7       29.80R

$$

LMZ046-743>745-240400-
SOUTHERN LAKE MICHIGAN

STATION/POSITION TIME  TEMP    WIND        PRES    WAVE
                       AIR SEA DIR/SP/G            HT
                 (UTC) (F)     (DEG/KT/KT) (MB)    (FT)
BURNS HARBOR     0240   70     300/ 10/ 12 1009.1R
MICHIGAN CITY    0240   73     290/ 10/ 11   N/A
5NW MICH CITY    0300   71 69  310/ 12/ 16   N/A     1

$$

INZ004-005-014>016-021>024-240400-
NORTH CENTRAL INDIANA

CITY           SKY/WX    TMP DP  RH WIND       PRES   REMARKS
GOSHEN         PTCLDY    64  54  69 S5        29.77R
LOGANSPORT +   PTCLDY    63  59  88 SW6       29.82R
PERU/GRISSOM   CLEAR     62  60  91 SW6       29.79R
ROCHESTER +    PTCLDY    68  57  68 SW3       29.80R
SOUTH BEND     CLOUDY    68  56  65 W6        29.78R
WARSAW +       CLOUDY    63  55  77 CALM      29.79R

$$

INZ006>009-017-018-025>027-240400-
NORTHEAST INDIANA

CITY           SKY/WX    TMP DP  RH WIND       PRES   REMARKS
AUBURN +       CLEAR     61  54  77 CALM      29.79R
FORT WAYNE     PTCLDY    63  55  75 W6        29.79R
HUNTINGTON +   PTCLDY    62  58  87 SW3       29.80R
KENDALLVILLE + CLEAR    N/A N/A N/A SW3       29.78R

$$

INZ028-029-035-036-043>045-051>053-240400-
WEST CENTRAL INDIANA

CITY           SKY/WX    TMP DP  RH WIND       PRES   REMARKS
CRAWFORDSVL +  CLOUDY    62  62 100 CALM      29.84R
GREENCASTLE +  PTCLDY    63  63 100 CALM      29.86R
LAFAYETTE      CLEAR     65  64  97 CALM      29.81R
TERRE HAUTE    PTCLDY    67  64  90 CALM      29.85R

$$

INZ030>032-037>040-046>048-054>057-064-065-240400-
CENTRAL INDIANA

CITY           SKY/WX    TMP DP  RH WIND       PRES   REMARKS
CP ATTERBURY + CLOUDY    64  61  88 CALM      29.86R
FRANKFORT +    MOCLDY    66  63  87 SW3       29.85R
GREENWOOD *+   PTCLDY    65  62  90 CALM      29.85R
INDIANAPOLIS   CLOUDY    65  60  84 W6        29.84R
-EAGLE CREEK   CLEAR     67  60  78 CALM      29.83R
KOKOMO +       CLEAR     64  59  83 SW7       29.83R
MARION +       PTCLDY    63  59  88 W6        29.82R
MT COMFORT *+  CLEAR     64  61  88 W5        29.84R
SHELBYVILLE    PTCLDY    67  60  78 W5        29.83R
ZIONSVILLE +   PTCLDY    63  62  95 CALM      29.85R

$$

INZ033-034-041-042-049-050-058-059-240400-
EAST CENTRAL INDIANA

CITY           SKY/WX    TMP DP  RH WIND       PRES   REMARKS
MUNCIE         PTCLDY    66  60  81 W6        29.82R
RICHMOND +     CLOUDY    63  63 100 W5        29.84R

$$

INZ060-061-067>069-081>083-085>088-240400-
SOUTHWEST INDIANA

CITY           SKY/WX    TMP DP  RH WIND       PRES   REMARKS
EVANSVILLE     CLOUDY    73  69  87 CALM      29.89R
HUNTINGBURG *+ MOCLDY    71  65  81 NW5       29.88R
WASHINGTON +   PTCLDY    67  65  94 W5        29.87R

$$

INZ062-063-066-070>080-084-089>092-240400-
SOUTH CENTRAL AND SOUTHEAST INDIANA

CITY           SKY/WX    TMP DP  RH WIND       PRES   REMARKS
BEDFORD +      PTCLDY    68  64  88 CALM      29.86R
BLOOMINGTON    PTCLDY    66  63  90 CALM      29.86R
MADISON *+     CLOUDY    70  68  94 NW6       29.87R
NORTH VERNON + MOCLDY    68  66  94 NW3       29.86R
SEYMOUR +      CLOUDY    70  68  94 NW5       29.85R

$$





USA.gov is the U.S. government's official web portal to all federal, state and local government web resources and services.